Hourly Data Report for October 10, 2013

All times are specified in Local Standard Time (LST). Add 1 hour to adjust for Daylight Saving Time where and when it is observed.

KAMLOOPS A
BRITISH COLUMBIA

50°42'09.000" N
120°26'55.000" W
345.30 m
1163781
71887
YKA

Download Data

Hourly Data (October 2013)
Hourly Data Report for October 10, 2013
Temp Definition
°C
Dew Point Temp Definition
°C
Rel Hum Definition
%
Wind Dir Definition
10's deg

Wind Spd Definition
km/h
Visibility Definition
km
Stn Press Definition
kPa
Hmdx Definition


Wind Chill Definition


Weather Definition


TIME
00:00 Legend Double Dagger 8.9 2.7 65 10 12 64.4 96.97     LegendNANA
01:00 Legend Double Dagger 8.6 2.8 67 6 5 64.4 96.97     Cloudy
02:00 Legend Double Dagger 8.0 2.9 70 18 4 64.4 96.96     LegendNANA
03:00 Legend Double Dagger 6.8 2.3 73 26 3 64.4 96.97     LegendNANA
04:00 Legend Double Dagger 6.5 2.4 75 26 6 64.4 97.00     Cloudy
05:00 Legend Double Dagger 7.2 1.9 69 26 7 64.4 97.04     LegendNANA
06:00 Legend Double Dagger 7.7 2.2 68 24 9 64.4 97.08     LegendNANA
07:00 Legend Double Dagger 8.6 2.6 66 27 21 64.4 97.13     Mostly Cloudy
08:00 Legend Double Dagger 9.5 0.2 52 27 25 64.4 97.20     LegendNANA
09:00 Legend Double Dagger 10.0 1.4 55 28 28 64.4 97.25     LegendNANA
10:00 Legend Double Dagger 11.1 0.8 49 29 23 64.4 97.27     Mostly Cloudy
11:00 Legend Double Dagger 12.3 -0.5 41 26 14 64.4 97.30     LegendNANA
12:00 Legend Double Dagger 12.5 -0.7 40 28 15 64.4 97.29     LegendNANA
13:00 Legend Double Dagger 14.5 -1.5 33 24 18 64.4 97.27     Mostly Cloudy
14:00 Legend Double Dagger 13.9 -3.3 30 28 19 64.4 97.27     LegendNANA
15:00 Legend Double Dagger 13.6 -3.2 31 30 18 64.4 97.28     LegendNANA
16:00 Legend Double Dagger 14.7 -3.6 28 27 17 64.4 97.30     Mostly Cloudy
17:00 Legend Double Dagger 13.4 -5.2 27 32 10 64.4 97.30     LegendNANA
18:00 Legend Double Dagger 11.1 -3.4 36 20 6 64.4 97.38     LegendNANA
19:00 Legend Double Dagger 9.0 -2.9 43 14 7 64.4 97.43     Mainly Clear
20:00 Legend Double Dagger 8.0 -3.5 44 30 6 64.4 97.50     LegendNANA
21:00 Legend Double Dagger 8.0 -2.6 47 34 1 64.4 97.59     LegendNANA
22:00 Legend Double Dagger 6.6 -1.1 58 9 8 64.4 97.62     Mostly Cloudy
23:00 Legend Double Dagger 6.5 -2.1 54 9 5 56.3 97.66     LegendNANA

Notes on Data Quality.

Legend

  • E = Estimated
  • M = Missing
  • NA = Not Available
  • ‡ = Partner data that is not subject to review by the National Climate Archives
Date modified: